Location: Newark
(52.2090°N, 4.1550°W)
Time: 04:15:20
(UTC+00:00)

Explorer 7 - Pass Details

Date: 22 September 2019
Orbit: 485 x 680 km, 50.3° (Epoch: 19 October)

Event Time Altitude Azimuth Distance (km) Brightness Sun altitude
Rises 05:17:46 0° 277° (W) 3,014 - -7.6°
Exits shadow 05:21:02 - 253° (WSW) 2,234 9.2 -7.1°
Reaches altitude 10° 05:21:56 10° 243° (WSW) 2,113 9.2 -6.9°
Maximum altitude 05:23:16 11° 227° (SW) 2,042 9.2 -6.7°
Drops below altitude 10° 05:24:38 10° 211° (SSW) 2,114 9.4 -6.5°
Sets 05:28:48 0° 177° (S) 3,016 10.5 -5.9°
